20081031,219
20081104,221
20081105,261
20081106,263
20081107,260
20081110,256
20081111,259
20081112,256
20081113,250
20081114,242
20081117,242
20081118,250
20081119,249
20081120,242
20081121,239
20081125,234
20081126,247
20081127,247
20081128,271
20081201,264
20081202,260
20081203,255
20081204,253
20081205,243
20081208,243
20081209,253
20081210,242
20081211,245
20081212,246
20081215,253
20081216,249
20081217,247
20081218,251
20081219,253
20081222,249
20081224,256
20081225,255
20081226,256
20081229,256
20081230,260
20090105,275
20090106,280
20090107,294
20090108,294
20090109,276
20090113,275
20090114,267
20090115,267
20090116,263
20090119,268
20090120,265
20090121,267
20090122,258
20090123,264
20090126,262
20090127,266
20090128,268
20090129,276
20090130,288
20090202,290
20090203,295
20090204,295
20090205,294
20090206,301
20090209,306
20090210,309
20090212,303
20090213,325
20090216,324
20090217,341
20090218,355
20090219,357
20090220,457
20090223,456
20090224,478
20090225,489
20090226,490
20090227,563
20090302,626
20090303,642
20090304,638
20090305,654
20090306,663
20090309,653
20090310,587
20090311,590
20090312,592
20090313,593
20090316,609
20090317,595
20090318,607
20090319,597
20090323,607
20090324,628
20090325,637
20090326,642
20090327,658
20090330,674
20090331,667
20090401,663
20090402,670
20090403,696
20090406,715
20090407,724
20090408,722
20090409,718
20090410,733
20090413,732
20090414,732
20090415,727
20090416,728
20090417,738
20090420,737
20090421,713
20090422,708
20090423,692
20090424,692
20090427,693
20090428,701
20090430,712
20090501,725
20090507,734
20090508,751
20090511,747
20090512,756
20090513,743
20090514,744
20090515,739
20090518,741
20090519,746
20090520,751
20090521,755
20090522,750
20090525,754
20090526,765
20090527,770
20090528,784
20090529,775
20090601,777
20090602,797
20090603,818
20090604,835
20090605,837
20090608,852
20090609,840
20090610,829
20090611,843
20090612,839
20090615,842
20090616,847
20090617,829
20090618,813
20090619,820
20090622,806
20090623,800
20090624,801
20090625,804
20090626,780
20090629,791
20090630,793
20090701,789
20090702,787
20090703,789
20090706,787
20090707,781
20090708,773
20090709,747
20090710,749
20090713,748
20090714,746
20090715,755
20090716,763
20090717,770
20090721,770
20090722,766
20090723,769
20090724,775
20090727,766
20090728,769
20090729,765
20090730,763
20090731,760
20090803,758
20090804,763
20090805,754
20090806,754
20090807,756
20090810,752
20090811,752
20090812,737
20090813,735
20090814,733
20090817,734
20090818,726
20090819,726
20090820,719
20090821,710
20090824,688
20090825,681
20090826,668
20090827,660
20090828,660
20090831,650
20090901,647
20090902,652
20090903,637
20090904,650
20090907,661
20090908,660
20090909,663
20090910,666
20090911,660
20090914,659
20090915,655
20090916,662
20090917,667
20090918,666
20090924,667
20090925,662
20090928,647
20090929,660
20090930,656
20091001,656
20091002,658
20091005,655
20091006,655
20091007,660
20091008,659
20091009,664
20091013,676
20091014,678
20091015,695
20091016,713
20091019,705
20091020,697
20091021,695
20091022,679
20091023,690
20091026,674
20091027,681
20091028,675
20091029,664
20091030,653
20091102,661
20091104,652
20091105,664
20091106,668
20091109,662
20091110,664
20091111,668
20091112,668
20091113,667
20091116,654
20091117,656
20091118,660
20091119,663
20091120,654
20091124,651
20091125,651
20091126,649
20091127,668
20091130,686
20091201,699
20091202,710
20091203,750
20091204,758
20091207,790
20091208,786
20091209,807
20091210,812
20091211,821
20091214,841
20091215,850
20091216,888
20091217,894
20091218,920
20091221,983
20091222,1040
20091224,1076
20091225,1098
20091228,1100
20091229,1107
20091230,1293
20100104,1403
20100105,1417
20100106,1421
20100107,1437
20100108,1476
20100112,1480
20100113,1468
20100114,1475
20100115,1485
20100118,1508
20100119,1541
20100120,1622
20100121,1645
20100122,1633
20100125,1662
20100126,1741
20100127,1725
20100128,1802
20100129,1809
20100201,1865
20100202,1922
20100203,1928
20100204,1968
20100205,1943
20100208,1912
20100209,1921
20100210,1958
20100212,1982
20100215,1991
20100216,1995
20100217,2000
20100218,2030
20100219,2101
20100222,2104
20100223,2128
20100224,2111
20100225,2123
20100226,2117
20100301,2138
20100302,2207
20100303,2212
20100304,2214
20100305,2248
20100308,2290
20100309,2344
20100310,2342
20100311,2385
20100312,2405
20100315,2424
20100316,2412
20100317,2425
20100318,2429
20100319,2445
20100323,2411
20100324,2437
20100325,2520
20100326,2531
20100329,2511
20100330,2528
20100331,2611
20100401,2662
20100402,2692
20100405,2709
20100406,2705
20100407,2720
20100408,2737
20100409,2710
20100412,2696
20100413,2729
20100414,2776
20100415,2787
20100416,2786
20100419,2761
20100420,2767
20100421,2795
20100422,2786
20100423,2799
20100426,2813
20100427,2828
20100428,2848
20100430,2887
20100506,2872
20100507,2776
20100510,2719
20100511,2774
20100512,2886
20100513,2879
20100514,2862
20100517,2874
20100518,2858
20100519,2845
20100520,2805
20100521,2750
20100524,2683
20100525,2711
20100526,2736
20100527,2807
20100528,2834
20100531,2986
20100601,3000
20100602,3014
20100603,3004
20100604,3025
20100607,3018
20100608,2977
20100609,2958
20100610,3010
20100611,3035
20100614,3141
20100615,3147
20100616,3187
20100617,3235
20100618,3243
20100621,3240
20100622,3277
20100623,3272
20100624,3280
20100625,3243
20100628,3293
20100629,3346
20100630,3340
20100701,3339
20100702,3365
20100705,3403
20100706,3486
20100707,3499
20100708,3518
20100709,3581
20100712,3609
20100713,3611
20100714,3631
20100715,3636
20100716,3614
20100720,3631
20100721,3724
20100722,3819
20100723,3996
20100726,4183
20100727,4344
20100728,4540
20100729,4688
20100730,4831
20100802,5177
20100803,5266
20100804,5338
20100805,5461
20100806,5578
20100809,5646
20100810,5809
20100811,5873
20100812,5941
20100813,6085
20100816,6199
20100817,6265
20100818,6478
20100819,6664
20100820,6757
20100823,6858
20100824,6983
20100825,7064
20100826,7201
20100827,7350
20100830,7704
20100831,7892
20100901,7998
20100902,8171
20100903,8305
20100906,8503
20100907,8570
20100908,8693
20100909,8719
20100910,9092
20100913,9446
20100914,9658
20100915,10193
20100916,10705
20100917,10931
20100921,11142
20100922,11385
20100924,11753
20100927,12220
20100928,12896
20100929,13274
20100930,13909
20101001,15079
20101004,15583
20101005,15910
20101006,16085
20101007,16634
20101008,16627
20101012,16977
20101013,17272
20101014,17168
20101015,18048
20101018,18254
20101019,18739
20101020,18870
20101021,18877
20101022,19182
20101025,19144
20101026,19187
20101027,19601
20101028,20376
20101029,20325
20101101,20707
20101102,20979
20101104,21160
20101105,21310
20101108,21969
20101109,22006
20101110,22046
20101111,22394
20101112,22545
20101115,22718
20101116,23209
20101117,23208
20101118,23367
20101119,23816
20101122,23941
20101124,23971
20101125,23955
20101126,24437
20101129,24754
20101130,25004
20101201,25257
20101202,25612
20101203,25746
20101206,25812
20101207,26120
20101208,26838
20101209,27066
20101210,27002
20101213,26935
20101214,27075
20101215,27531
20101216,27847
20101217,27848
20101220,28006
20101221,27927
20101222,28296
20101224,28379
20101227,28538
20101228,28615
20101229,29093
20101230,29035
20110104,30163
20110105,30710
20110106,31060
20110107,30922
20110111,30689
20110112,30747
20110113,31003
20110114,31248
20110117,31455
20110118,31373
20110119,31721
20110120,31517
20110121,32308
20110124,32479
20110125,32610
20110126,32781
20110127,32775
20110128,33699
20110131,33599
20110201,33877
20110202,34288
20110203,34477
20110204,34195
20110207,34681
20110208,34888
20110209,34908
20110210,35496
20110214,35669
20110215,35983
20110216,36262
20110217,36344
20110218,36595
20110221,36306
20110222,36523
20110223,36980
20110224,36915
20110225,36999
20110228,37456
20110301,37989
20110302,38332
20110303,38538
20110304,39037
20110307,39352
20110308,39470
20110309,39776
20110310,39668
20110311,40207
20110314,39826
20110315,39851
20110316,39864
20110317,38955
20110318,39798
20110322,39460
20110323,39693
20110324,39987
20110325,40157
20110328,40639
20110329,40871
20110330,41498
20110331,42429
20110401,43565
20110404,43926
20110405,44900
20110406,45317
20110407,45152
20110408,44409
20110411,44701
20110412,44474
20110413,43735
20110414,43053
20110415,43134
20110418,43051
20110419,43027
20110420,42626
20110421,42793
20110422,42726
20110425,42931
20110426,42736
20110427,42785
20110428,44397
20110502,43990
20110506,42767
20110509,42927
20110510,42970
20110511,43774
20110512,44430
20110513,44221
20110516,44549
20110517,44440
20110518,45340
20110519,46403
20110520,46485
20110523,46812
20110524,46959
20110525,47089
20110526,47635
20110527,47321
20110530,47782
20110531,48699
20110601,49644
20110602,50080
20110603,50116
20110606,49918
20110607,50003
20110608,49803
20110609,49943
20110610,50346
20110613,50669
20110614,50605
20110615,50855
20110616,51562
20110617,51166
20110620,50446
20110621,50702
20110622,50834
20110623,51455
20110624,51712
20110627,51764
20110628,51657
20110629,52488
20110630,53077
20110701,53715
20110704,53994
20110705,54381
20110706,54697
20110707,54359
20110708,54535
20110711,54758
20110712,54280
20110713,53496
20110714,53041
20110715,53613
20110719,53701
20110720,53493
20110721,53966
20110722,53980
20110725,54438
20110726,54573
20110727,54946
20110728,55215
20110729,54735
20110801,54608
20110802,55162
20110803,54740
20110804,56198
20110805,56547
20110808,55142
20110809,55283
20110810,53307
20110811,54597
20110812,53350
20110815,53282
20110816,53295
20110817,54660
20110818,54831
20110819,55305
20110822,54214
20110823,54328
20110824,54112
20110825,54576
20110826,54460
20110829,54158
20110830,54862
20110831,55273
20110901,55422
20110902,55771
20110905,54824
20110906,54115
20110907,54495
20110908,54438
20110909,54224
20110912,54110
20110913,53618
20110914,52505
20110915,52313
20110916,52160
20110920,50758
20110921,48732
20110922,49371
20110926,46150
20110927,47842
20110928,48348
20110929,48806
20110930,48052
20111003,48385
20111004,48124
20111005,47058
20111006,47963
20111007,48584
20111011,50090
20111012,50340
20111013,50638
20111014,50235
20111017,51164
20111018,51517
20111019,50317
20111020,50352
20111021,49977
20111024,49425
20111025,49610
20111026,50163
20111027,49995
20111028,50139
20111031,52822
20111101,54584
20111102,54592
20111104,52484
20111107,52581
20111108,51966
20111109,52025
20111110,52579
20111111,51068
20111114,51318
20111115,51867
20111116,51916
20111117,51038
20111118,51222
20111121,50278
20111122,50318
20111124,49490
20111125,48453
20111128,47966
20111129,48584
20111130,49624
20111201,49667
20111202,50848
20111205,51276
20111206,51417
20111207,51484
20111208,51256
20111209,51084
20111212,50410
20111213,51226
20111214,50075
20111215,49576
20111216,48977
20111219,49489
20111220,49009
20111221,48598
20111222,49493
20111226,49037
20111227,49091
20111228,49000
20111229,48892
20111230,48527
20120104,48112
20120105,49211
20120106,49440
20120110,48541
20120111,49135
20120112,50068
20120113,49904
20120116,50680
20120117,50381
20120118,50302
20120119,50262
20120120,50376
20120123,50390
20120124,50725
20120125,51174
20120126,51159
20120127,50905
20120130,50816
20120131,51016
20120201,50529
20120202,50515
20120203,51113
20120206,51732
20120207,51926
20120208,51857
20120209,52038
20120210,52594
20120213,52814
20120214,52638
20120215,53594
20120216,53391
20120217,53557
20120220,53539
20120221,53713
20120222,53757
20120223,54129
20120224,54266
20120227,54822
20120228,54379
20120229,54600
20120301,55466
20120302,54773
20120305,55171
20120306,54614
20120307,53846
20120308,53678
20120309,53564
20120312,54245
20120313,53399
20120314,53758
20120315,54444
20120316,53789
20120319,54023
20120321,52883
20120322,53216
20120323,52797
20120326,52897
20120327,53508
20120328,53568
20120329,53406
20120330,53321
20120402,54189
20120403,53171
20120404,53760
20120405,53719
20120406,53807
20120409,53274
20120410,53476
20120411,53163
20120412,52963
20120413,52912
20120416,53213
20120417,52718
20120418,52833
20120419,52784
20120420,51849
20120423,51834
20120424,51906
20120425,51944
20120426,51962
20120427,52085
20120501,51183
20120502,51462
20120507,50916
20120508,50787
20120509,50899
20120510,50257
20120511,49405
20120514,50170
20120515,49749
20120516,49488
20120517,49231
20120518,48754
20120521,47760
20120522,47639
20120523,47483
20120524,46056
20120525,47497
20120528,47414
20120529,47453
20120530,48600
20120531,48200
20120601,47546
20120604,47081
20120605,46726
20120606,46544
20120607,47692
20120608,47965
20120611,47735
20120612,47944
20120613,47111
20120614,47032
20120615,47048
20120618,47314
20120619,47356
20120620,46246
20120621,47424
20120622,47935
20120625,47352
20120626,46933
20120627,46979
20120628,46784
20120629,46646
20120702,47056
20120703,48552
20120704,49337
20120705,48792
20120706,48423
20120709,48318
20120710,48327
20120711,48003
20120712,48321
20120713,48290
20120717,47926
20120718,48158
20120719,48240
20120720,47500
20120723,47664
20120724,47429
20120725,46936
20120726,46713
20120727,47246
20120730,47529
20120731,47338
20120801,46976
20120802,46930
20120803,47064
20120806,47218
20120807,47478
20120808,47625
20120809,47637
20120810,47927
20120813,47809
20120814,47938
20120815,48151
20120816,48312
20120817,48374
20120820,47790
20120821,47903
20120822,47809
20120823,47496
20120824,47519
20120827,47581
20120828,47525
20120829,47365
20120830,47296
20120831,47151
20120903,47143
20120904,47729
20120905,47766
20120906,47568
20120907,47900
20120910,47526
20120911,47815
20120912,47660
20120913,47770
20120914,47541
20120918,48481
20120919,48157
20120920,47496
20120921,47633
20120924,47580
20120925,47400
20120926,47582
20120927,47532
20120928,47456
20121001,48027
20121002,48165
20121003,48425
20121004,48574
20121005,48709
20121009,48437
20121010,48437
20121011,48362
20121012,48480
20121015,48378
20121016,48562
20121017,48774
20121018,49138
20121019,49343
20121022,48521
20121023,49056
20121024,49069
20121025,49068
20121026,49398
20121029,49107
20121030,49259
20121031,49063
20121101,49409
20121102,49674
20121105,49792
20121106,49667
20121107,49546
20121108,49369
20121109,49041
20121112,48944
20121113,48908
20121114,48820
20121115,49093
20121116,49673
20121119,49611
20121120,48438
20121121,48812
20121122,49231
20121126,48875
20121127,49098
20121128,49253
20121129,49187
20121130,49169
20121203,49339
20121204,48393
20121205,48750
20121206,49187
20121207,50094
20121210,50451
20121211,50507
20121212,50655
20121213,51097
20121214,51544
20121217,51519
20121218,51502
20121219,51585
20121220,50919
20121221,51861
20121225,52161
20121226,52748
20121227,52956
20121228,54176
20130104,55546
20130107,55861
20130108,55962
20130109,55839
20130110,56161
20130111,56836
20130115,57508
20130116,56857
20130117,57152
20130118,57724
20130121,56854
20130122,56969
20130123,56276
20130124,56210
20130125,57578
20130128,58035
20130129,57726
20130130,59356
20130131,60042
20130201,60496
20130204,60586
20130205,60505
20130206,61282
20130207,61432
20130208,61449
20130212,62438
20130213,61686
20130214,61625
20130215,61414
20130218,62106
20130219,61876
20130220,61242
20130221,61632
20130222,61199
20130225,61335
20130226,60575
20130227,59946
20130228,60468
20130301,60940
20130304,61505
20130305,61351
20130306,61549
20130307,62405
20130308,62658
20130311,63543
20130312,64100
20130313,63351
20130314,62782
20130315,62712
20130318,61889
20130319,61743
20130321,61157
20130322,60673
20130325,59656
20130326,58968
20130327,58923
20130328,58459
20130329,58084
20130401,58015
20130402,57230
20130403,57266
20130404,56401
20130405,58614
20130408,59880
20130409,61070
20130410,60490
20130411,60637
20130412,60352
20130415,59197
20130416,57921
20130417,57407
20130418,57593
20130419,57407
20130422,57001
20130423,56838
20130424,56715
20130425,56528
20130426,56441
20130430,55891
20130501,55129
20130502,55008
20130507,56142
20130508,56036
20130509,55952
20130510,56944
20130513,57177
20130514,56298
20130515,56898
20130516,56246
20130517,56089
20130520,55443
20130521,55121
20130522,54750
20130523,55248
20130524,53918
20130527,52904
20130528,52990
20130529,53109
20130530,52022
20130531,51965
20130603,50637
20130604,48975
20130605,49826
20130606,49298
20130607,47981
20130610,48032
20130611,48311
20130612,46712
20130613,46605
20130614,45686
20130617,46504
20130618,45946
20130619,45510
20130620,45121
20130621,44201
20130624,44112
20130625,43984
20130626,44706
20130627,44890
20130628,45703
20130701,45827
20130702,45047
20130703,45700
20130704,44959
20130705,44832
20130708,45454
20130709,45319
20130710,45295
20130711,44568
20130712,43928
20130716,44346
20130717,45151
20130718,44618
20130719,45660
20130722,44716
20130723,44157
20130724,44484
20130725,45184
20130726,43866
20130729,43319
20130730,43055
20130731,42648
20130801,42315
20130802,43072
20130805,42225
20130806,42086
20130807,41553
20130808,41329
20130809,41118
20130812,41266
20130813,42049
20130814,41947
20130815,41159
20130816,40684
20130819,40236
20130820,38588
20130821,38192
20130822,38751
20130823,38050
20130826,38205
20130827,39566
20130828,38592
20130829,39001
20130830,39652
20130902,39408
20130903,39452
20130904,39465
20130905,39809
20130906,39917
20130909,40468
20130910,41022
20130911,41687
20130912,41213
20130913,41429
20130917,41091
20130918,40975
20130919,41151
20130920,42750
20130924,42079
20130925,42216
20130926,42113
20130927,41787
20130930,40941
20131001,40954
20131002,41561
20131003,41355
20131004,41343
20131007,41534
20131008,41311
20131009,41500
20131010,41619
20131011,41972
20131015,42542
20131016,42495
20131017,42443
20131018,42191
20131021,41863
20131022,41756
20131023,41608
20131024,41434
20131025,41095
20131028,41031
20131029,41405
20131030,41896
20131031,41952
20131101,41821
20131105,40564
20131106,40593
20131107,39938
20131108,39712
20131111,39481
20131112,39533
20131113,39397
20131114,39392
20131115,39783
20131118,39750
20131119,39882
20131120,40436
20131121,40644
20131122,40577
20131125,40123
20131126,40582
20131127,40287
20131128,40370
20131129,40134
20131202,40309
20131203,39989
20131204,39444
20131205,38729
20131206,38264
20131209,39264
20131210,39810
20131211,39852
20131212,39904
20131213,39701
20131216,39634
20131217,39540
20131218,39414
20131219,39934
20131220,38966
20131224,37840
20131225,37783
20131226,37959
20131227,38031
20131230,38677
20140106,37862
20140107,37788
20140108,38009
20140109,38118
20140110,37694
20140114,37730
20140115,37953
20140116,38272
20140117,37988
20140120,37253
20140121,37803
20140122,37563
20140123,37402
20140124,36784
20140127,35724
20140128,35878
20140129,35584
20140130,35058
20140131,35110
20140203,35204
20140204,34841
20140205,34551
20140206,35036
20140207,35445
20140210,35806
20140212,35477
20140213,35462
20140214,35041
20140217,35340
20140218,35685
20140219,35799
20140220,35119
20140221,35208
20140224,35529
20140225,35960
20140226,35928
20140227,36007
20140228,35628
20140303,35771
20140304,35750
20140305,35997
20140306,35691
20140307,35918
20140310,35678
20140311,35239
20140312,34992
20140313,34631
20140314,34427
20140317,34054
20140318,34446
20140319,34207
20140320,34188
20140324,34206
20140325,34241
20140326,34301
20140327,34393
20140328,34727
20140331,35592
20140401,35574
20140402,35500
20140403,35561
20140404,35267
20140407,34820
20140408,35189
20140409,35143
20140410,35174
20140411,35072
20140414,34442
20140415,34250
20140416,34089
20140417,33701
20140418,33740
20140421,33211
20140422,33289
20140423,33370
20140424,33061
20140425,33170
20140428,33228
20140430,33142
20140501,32766
20140502,32828
20140507,32595
20140508,32840
20140509,32925
20140512,32963
20140513,32953
20140514,32889
20140515,32772
20140516,32824
20140519,32519
20140520,31972
20140521,31974
20140522,31869
20140523,32108
20140526,31972
20140527,31805
20140528,31654
20140529,31282
20140530,31272
20140602,31650
20140603,31436
20140604,30854
20140605,30681
20140606,30569
20140609,30881
20140610,30690
20140611,31137
20140612,31029
20140613,30821
20140616,30841
20140617,30663
20140618,30325
20140619,29879
20140620,29294
20140623,29941
20140624,29646
20140625,29821
20140626,29507
20140627,29584
20140630,29565
20140701,29477
20140702,29181
20140703,29310
20140704,29005
20140707,29205
20140708,28927
20140709,28660
20140710,28603
20140711,28702
20140714,28278
20140715,28240
20140716,28293
20140717,28128
20140718,27892
20140722,27538
20140723,27688
20140724,27756
20140725,27560
20140728,27500
20140729,27158
20140730,27176
20140731,27188
20140801,26853
20140804,26532
20140805,26499
20140806,26347
20140807,25935
20140808,26050
20140811,25762
20140812,25988
20140813,26062
20140814,26081
20140815,25982
20140818,25906
20140819,26398
20140820,26250
20140821,26615
20140822,26376
20140825,26257
20140826,26146
20140827,26028
20140828,26219
20140829,26339
20140901,26542
20140902,26675
20140903,26608
20140904,26633
20140905,26708
20140908,26470
20140909,26539
20140910,26014
20140911,25872
20140912,25850
20140916,25027
20140917,24946
20140918,25278
20140919,25003
20140922,24455
20140924,24011
20140925,23895
20140926,24103
20140929,23772
20140930,23844
20141001,23531
20141002,23513
20141003,22986
20141006,23152
20141007,23559
20141008,23771
20141009,24141
20141010,24257
20141014,23586
20141015,23951
20141016,23511
20141017,22973
20141020,22723
20141021,22991
20141022,22739
20141023,22639
20141024,22671
20141027,22532
20141028,22701
20141029,22441
20141030,23171
20141031,23162
20141104,23896
20141105,23609
20141106,23768
20141107,23620
20141110,22801
20141111,22766
20141112,22955
20141113,22745
20141114,22686
20141117,22593
20141118,22525
20141119,22506
20141120,22661
20141121,22666
20141125,23540
20141126,23241
20141127,23358
20141128,23629
20141201,23426
20141202,22975
20141203,23130
20141204,23147
20141205,23223
20141208,23108
20141209,23035
20141210,22547
20141211,22192
20141212,22111
20141215,21744
20141216,21485
20141217,20763
20141218,20939
20141219,21241
20141222,21421
20141224,21764
20141225,21701
20141226,21714
20141229,21746
20141230,21735
20150105,21728
20150106,21288
20150107,21210
20150108,21407
20150109,21612
20150113,21709
20150114,21363
20150115,21691
20150116,21670
20150119,21701
20150120,21627
20150121,21693
20150122,21914
20150123,22067
20150126,22062
20150127,22214
20150128,22014
20150129,22033
20150130,22046
20150202,21611
20150203,20895
20150204,20695
20150205,20891
20150206,20618
20150209,20793
20150210,20401
20150212,20212
20150213,19825
20150216,20198
20150217,20134
20150218,20286
20150219,20134
20150220,19739
20150223,19571
20150224,19556
20150225,19508
20150226,19904
20150227,19738
20150302,19695
20150303,20216
20150304,19684
20150305,19416
20150306,19127
20150309,18992
20150310,18620
20150311,18083
20150312,18412
20150313,18249
20150316,17808
20150317,17521
20150318,17457
20150319,17350
20150320,17193
20150323,16866
20150324,17298
20150325,17843
20150326,17770
20150327,17435
20150330,17548
20150331,17412
20150401,17605
20150402,17847
20150403,18018
20150406,17955
20150407,18023
20150408,18443
20150409,18506
20150410,19031
20150413,18927
20150414,18882
20150415,18649
20150416,18932
20150417,19219
20150420,18953
20150421,19015
20150422,19064
20150423,19183
20150424,19273
20150427,19471
20150428,19747
20150430,19819
20150501,19872
20150507,19152
20150508,19350
20150511,19515
20150512,19971
20150513,19358
20150514,19600
20150515,19632
20150518,19925
20150519,20082
20150520,19793
20150521,19827
20150522,20106
20150525,20035
20150526,20176
20150527,20069
20150528,19869
20150529,19972
20150601,20141
20150602,20152
20150603,20077
20150604,20303
20150605,20316
20150608,20360
20150609,20331
20150610,20531
20150611,20479
20150612,20326
20150615,20530
20150616,20377
20150617,20348
20150618,20584
20150619,20769
20150622,20267
20150623,20299
20150624,20366
20150625,20554
20150626,20336
20150629,20101
20150630,20001
20150701,20143
20150702,20440
20150703,20107
20150706,20403
20150707,20159
20150708,20083
20150709,19586
20150710,19711
20150713,19672
20150714,20230
20150715,20359
20150716,20449
20150717,20533
20150721,19901
20150722,19953
20150723,20160
20150724,19786